sat.trackr.live / text

‹ back to catalog

STARLINK-35671

NORAD 66392 · 2025-257N

PAYLOAD ACTIVE UNKNOWN

§ Identity

Operator
Country
US
Launch date
2025-11-09
Launch site
AFETR
Launch vehicle
Mass (kg)
RCS (m²)

Purposes: comms

External: N2YO · Heavens-Above · Gunter

§ Orbital elements

Epoch: 2026-05-25T05:03:52.107264Z

Period
94.10 min
Inclination
53.1592°
Eccentricity
0.0001304
Mean motion
15.30208242 rev/d
Perigee alt
474.3 km
Apogee alt
476.1 km
Semi-major
6,853.3 km
B*
5.8351e-4
RAAN
221.2764°
Arg perigee
90.8248°
Mean anomaly
269.2902°
Rev number
3,145

§ Raw data

STARLINK-356711 66392U 25257N   26145.21101976  .00016967  00000+0  58351-3 0  99952 66392  53.1592 221.2764 0001304  90.8248 269.2902 15.30208242 31456

JSON: /api/v1/satellites/66392 · /tle

For live sub-satellite position, see the globe view (requires WebGL).

§ Visibility from observer

Set your observer location to see the next 7 days of passes ≥ 10°. The values pass through the URL so the page stays shareable.

No JS? Fill the form by hand. The geolocation button needs JavaScript.